WMT9LZ LRCL-LIPH

Flight info

Callsign WMT9LZ
Flight time 1h 23m
Altitude 36000
Route ELROM DCT BUDOP DCT VEBAL DCT KOTOR DCT LABIN L614 CHI
Aircraft A321/M-SDE3FGHIRWY/LB1

Departure

Time 2026-05-04 16:58
Airport Avram Iancu Cluj International Airport (LRCL)

Arrival

Time 2026-05-04 18:21
Airport Treviso Airport (LIPH)
Time Latitude Longitude Altitude Speed Heading
2026-05-04 16:28 46.78455 23.69295 1043 ft 0 kts 252°
2026-05-04 16:49 46.78455 23.69297 1043 ft 2 kts 252°
2026-05-04 16:50 46.78482 23.69359 1043 ft 4 kts 246°
2026-05-04 16:50 46.78487 23.69371 1043 ft 0 kts 327°
2026-05-04 16:53 46.78492 23.69366 1043 ft 2 kts 327°
2026-05-04 16:54 46.78510 23.69354 1043 ft 7 kts 339°
2026-05-04 16:55 46.78841 23.69196 1043 ft 14 kts 342°
2026-05-04 16:55 46.78947 23.69300 1043 ft 12 kts 71°
2026-05-04 16:56 46.79002 23.69543 1043 ft 8 kts 70°
2026-05-04 16:56 46.79010 23.69580 1043 ft 3 kts 253°
2026-05-04 16:57 46.79006 23.69561 1043 ft 0 kts 253°
2026-05-04 16:57 46.79000 23.69534 1043 ft 19 kts 253°
2026-05-04 16:58 46.78244 23.66292 1680 ft 152 kts 253°
2026-05-04 16:58 46.77894 23.64817 2295 ft 153 kts 252°
2026-05-04 16:59 46.77169 23.61707 3010 ft 172 kts 252°
2026-05-04 17:00 46.76622 23.53853 4343 ft 227 kts 270°
2026-05-04 17:00 46.76410 23.45951 5547 ft 281 kts 269°
2026-05-04 17:01 46.76245 23.40136 6980 ft 293 kts 269°
2026-05-04 17:01 46.76070 23.34127 8539 ft 300 kts 269°
2026-05-04 17:02 46.75879 23.28041 10108 ft 306 kts 269°
2026-05-04 17:02 46.75674 23.21450 10695 ft 348 kts 269°
2026-05-04 17:03 46.75559 23.17854 11129 ft 361 kts 269°
2026-05-04 17:03 46.75438 23.14138 11575 ft 372 kts 269°
2026-05-04 17:03 46.75172 23.06483 12827 ft 383 kts 269°
2026-05-04 17:04 46.74893 22.98608 14102 ft 394 kts 269°
2026-05-04 17:04 46.74616 22.90604 15241 ft 403 kts 269°
2026-05-04 17:05 46.74324 22.82367 16481 ft 410 kts 270°
2026-05-04 17:05 46.74022 22.73939 17717 ft 419 kts 270°
2026-05-04 17:06 46.73703 22.65355 18824 ft 428 kts 270°
2026-05-04 17:06 46.73537 22.61016 19410 ft 430 kts 270°
2026-05-04 17:07 46.73194 22.52265 20539 ft 435 kts 270°
2026-05-04 17:07 46.73079 22.49350 20931 ft 436 kts 270°
2026-05-04 17:07 46.72847 22.43463 21686 ft 439 kts 270°
2026-05-04 17:07 46.72676 22.39033 22233 ft 441 kts 270°
2026-05-04 17:08 46.72498 22.34544 22770 ft 444 kts 270°
2026-05-04 17:08 46.72126 22.25522 23793 ft 449 kts 270°
2026-05-04 17:08 46.71936 22.20977 24220 ft 451 kts 270°
2026-05-04 17:09 46.71747 22.16444 24651 ft 453 kts 270°
2026-05-04 17:09 46.71555 22.11867 25091 ft 454 kts 270°
2026-05-04 17:09 46.71359 22.07261 25516 ft 456 kts 270°
2026-05-04 17:10 46.70960 21.97991 26368 ft 460 kts 270°
2026-05-04 17:10 46.70342 21.83931 27538 ft 466 kts 269°
2026-05-04 17:11 46.70127 21.79227 27892 ft 468 kts 269°
2026-05-04 17:11 46.69908 21.74477 28246 ft 469 kts 269°
2026-05-04 17:11 46.69471 21.65019 28951 ft 473 kts 269°
2026-05-04 17:12 46.69247 21.60222 29304 ft 475 kts 269°
2026-05-04 17:12 46.68772 21.50583 29976 ft 479 kts 266°
2026-05-04 17:13 46.66798 21.36275 31116 ft 478 kts 261°
2026-05-04 17:14 46.64722 21.22190 32248 ft 474 kts 261°
2026-05-04 17:14 46.64026 21.17498 32626 ft 473 kts 261°
2026-05-04 17:14 46.62636 21.08170 33369 ft 470 kts 262°
2026-05-04 17:15 46.61941 21.03529 33736 ft 469 kts 261°
2026-05-04 17:15 46.60553 20.94311 34212 ft 471 kts 261°
2026-05-04 17:16 46.59146 20.84995 34678 ft 471 kts 261°
2026-05-04 17:16 46.57030 20.71120 35670 ft 462 kts 261°
2026-05-04 17:17 46.56336 20.66580 35991 ft 460 kts 261°
2026-05-04 17:18 46.53568 20.48620 36072 ft 454 kts 261°
2026-05-04 17:19 46.50774 20.30763 36073 ft 453 kts 261°
2026-05-04 17:20 46.47974 20.12950 36075 ft 453 kts 260°
2026-05-04 17:20 46.45859 19.99659 36076 ft 453 kts 260°
2026-05-04 17:21 46.43008 19.81893 36078 ft 452 kts 260°
2026-05-04 17:22 46.41570 19.73019 36076 ft 452 kts 260°
2026-05-04 17:23 46.38678 19.55329 36077 ft 451 kts 260°
2026-05-04 17:24 46.36495 19.42089 36073 ft 450 kts 259°
2026-05-04 17:25 46.33576 19.24551 36066 ft 449 kts 259°
2026-05-04 17:26 46.30623 19.06996 36063 ft 448 kts 259°
2026-05-04 17:27 46.26914 18.85131 36060 ft 447 kts 259°
2026-05-04 17:28 46.23930 18.67739 36057 ft 447 kts 259°
2026-05-04 17:29 46.19647 18.43121 36059 ft 445 kts 258°
2026-05-04 17:31 46.15841 18.21496 36060 ft 444 kts 258°
2026-05-04 17:32 46.11995 17.99955 36058 ft 444 kts 258°
2026-05-04 17:33 46.08898 17.82781 36045 ft 443 kts 258°
2026-05-04 17:34 46.05785 17.65640 36036 ft 443 kts 258°
2026-05-04 17:35 46.01838 17.44233 36033 ft 443 kts 258°
2026-05-04 17:36 46.00256 17.35689 36032 ft 442 kts 258°
2026-05-04 17:36 45.98398 17.27247 36032 ft 445 kts 249°
2026-05-04 17:37 45.95872 17.19131 36028 ft 445 kts 249°
2026-05-04 17:37 45.93357 17.11010 36042 ft 445 kts 249°
2026-05-04 17:38 45.90861 17.02946 36033 ft 445 kts 249°
2026-05-04 17:38 45.88332 16.94849 36033 ft 444 kts 248°
2026-05-04 17:39 45.84521 16.82738 36032 ft 444 kts 248°
2026-05-04 17:39 45.81991 16.74678 36033 ft 443 kts 248°
2026-05-04 17:40 45.79457 16.66631 36032 ft 443 kts 248°
2026-05-04 17:40 45.76916 16.58601 36035 ft 442 kts 248°
2026-05-04 17:41 45.74377 16.50604 36032 ft 440 kts 247°
2026-05-04 17:41 45.71860 16.42714 36040 ft 437 kts 247°
2026-05-04 17:42 45.69337 16.34830 36038 ft 435 kts 247°
2026-05-04 17:42 45.66817 16.26978 36034 ft 434 kts 247°
2026-05-04 17:43 45.64303 16.19154 36029 ft 433 kts 247°
2026-05-04 17:43 45.61790 16.11352 36024 ft 432 kts 247°
2026-05-04 17:44 45.59271 16.03562 36026 ft 431 kts 247°
2026-05-04 17:44 45.56769 15.95851 36025 ft 431 kts 247°
2026-05-04 17:45 45.54249 15.88084 36027 ft 431 kts 246°
2026-05-04 17:45 45.51713 15.80338 36031 ft 431 kts 246°
2026-05-04 17:46 45.49169 15.72596 35881 ft 431 kts 246°
2026-05-04 17:46 45.47903 15.68732 35584 ft 430 kts 246°
2026-05-04 17:46 45.46634 15.64866 35274 ft 430 kts 246°
2026-05-04 17:47 45.45370 15.61025 34981 ft 427 kts 246°
2026-05-04 17:47 45.44209 15.57214 34694 ft 423 kts 252°
2026-05-04 17:47 45.43420 15.53211 34406 ft 420 kts 257°
2026-05-04 17:47 45.42739 15.49173 34119 ft 418 kts 257°
2026-05-04 17:48 45.42052 15.45165 33802 ft 416 kts 257°
2026-05-04 17:48 45.41364 15.41171 33474 ft 413 kts 257°
2026-05-04 17:48 45.40672 15.37192 33146 ft 411 kts 256°
2026-05-04 17:48 45.39995 15.33308 32840 ft 409 kts 256°
2026-05-04 17:49 45.39302 15.29340 32521 ft 407 kts 256°
2026-05-04 17:49 45.38635 15.25519 32221 ft 404 kts 256°
2026-05-04 17:49 45.37956 15.21632 31914 ft 402 kts 256°
2026-05-04 17:49 45.37283 15.17782 31610 ft 400 kts 256°
2026-05-04 17:50 45.36613 15.13954 31317 ft 398 kts 256°
2026-05-04 17:50 45.35948 15.10152 31007 ft 396 kts 256°
2026-05-04 17:50 45.35282 15.06351 30720 ft 394 kts 256°
2026-05-04 17:50 45.34616 15.02576 30434 ft 392 kts 256°
2026-05-04 17:51 45.33952 14.98828 30157 ft 391 kts 256°
2026-05-04 17:51 45.33289 14.95092 30056 ft 389 kts 256°
2026-05-04 17:51 45.31962 14.87616 30087 ft 390 kts 256°
2026-05-04 17:52 45.30635 14.80188 29675 ft 389 kts 256°
2026-05-04 17:52 45.29968 14.76474 29311 ft 387 kts 256°
2026-05-04 17:52 45.29304 14.72780 28950 ft 385 kts 256°
2026-05-04 17:53 45.28639 14.69093 28596 ft 384 kts 256°
2026-05-04 17:53 45.27977 14.65429 28244 ft 382 kts 256°
2026-05-04 17:53 45.27318 14.61788 27897 ft 381 kts 256°
2026-05-04 17:53 45.26661 14.58151 27562 ft 379 kts 256°
2026-05-04 17:54 45.26008 14.54535 27219 ft 378 kts 256°
2026-05-04 17:54 45.25357 14.50932 26887 ft 376 kts 256°
2026-05-04 17:54 45.24706 14.47342 26559 ft 375 kts 256°
2026-05-04 17:54 45.24055 14.43765 26234 ft 374 kts 256°
2026-05-04 17:55 45.23402 14.40207 25916 ft 372 kts 255°
2026-05-04 17:55 45.22752 14.36673 25627 ft 371 kts 255°
2026-05-04 17:55 45.22104 14.33141 25337 ft 370 kts 255°
2026-05-04 17:55 45.21460 14.29615 25054 ft 369 kts 255°
2026-05-04 17:56 45.20816 14.26103 24781 ft 367 kts 255°
2026-05-04 17:56 45.20171 14.22609 24490 ft 366 kts 255°
2026-05-04 17:56 45.19525 14.19126 24215 ft 365 kts 255°
2026-05-04 17:56 45.18880 14.15648 23941 ft 364 kts 255°
2026-05-04 17:57 45.18245 14.12230 23668 ft 363 kts 255°
2026-05-04 17:57 45.17601 14.08779 23333 ft 361 kts 255°
2026-05-04 17:57 45.16960 14.05346 23018 ft 359 kts 255°
2026-05-04 17:57 45.16322 14.01934 22705 ft 357 kts 255°
2026-05-04 17:58 45.15686 13.98538 22375 ft 355 kts 255°
2026-05-04 17:58 45.15057 13.95166 22064 ft 354 kts 255°
2026-05-04 17:58 45.14430 13.91804 21750 ft 352 kts 255°
2026-05-04 17:58 45.13806 13.88463 21441 ft 350 kts 254°
2026-05-04 17:59 45.13182 13.85134 21123 ft 349 kts 254°
2026-05-04 17:59 45.12563 13.81851 20839 ft 347 kts 254°
2026-05-04 17:59 45.11320 13.75279 20243 ft 344 kts 254°
2026-05-04 18:00 45.10703 13.72023 19954 ft 342 kts 254°
2026-05-04 18:00 45.10087 13.68773 19663 ft 341 kts 253°
2026-05-04 18:00 45.09468 13.65508 19450 ft 352 kts 253°
2026-05-04 18:00 45.08814 13.62076 19235 ft 369 kts 253°
2026-05-04 18:01 45.08135 13.58530 19014 ft 376 kts 253°
2026-05-04 18:01 45.07486 13.54944 18803 ft 377 kts 259°
2026-05-04 18:01 45.07336 13.51248 18594 ft 378 kts 268°
2026-05-04 18:02 45.07356 13.43874 18145 ft 376 kts 268°
2026-05-04 18:02 45.07372 13.40181 17897 ft 375 kts 268°
2026-05-04 18:02 45.07385 13.36503 17650 ft 373 kts 268°
2026-05-04 18:02 45.07394 13.32844 17420 ft 372 kts 268°
2026-05-04 18:03 45.07401 13.29187 17183 ft 370 kts 268°
2026-05-04 18:03 45.07407 13.25534 16952 ft 369 kts 268°
2026-05-04 18:03 45.07411 13.21958 16728 ft 367 kts 268°
2026-05-04 18:03 45.07416 13.18333 16486 ft 365 kts 268°
2026-05-04 18:04 45.07418 13.14741 16254 ft 364 kts 268°
2026-05-04 18:04 45.07417 13.11168 16029 ft 363 kts 268°
2026-05-04 18:04 45.07414 13.04057 15576 ft 362 kts 268°
2026-05-04 18:05 45.07411 13.00501 15357 ft 369 kts 268°
2026-05-04 18:05 45.07761 12.96904 15068 ft 373 kts 285°
2026-05-04 18:05 45.08776 12.93514 14807 ft 374 kts 292°
2026-05-04 18:05 45.09866 12.90180 14545 ft 373 kts 292°
2026-05-04 18:06 45.12047 12.83529 14031 ft 371 kts 292°
2026-05-04 18:06 45.13130 12.80215 13753 ft 370 kts 292°
2026-05-04 18:06 45.14204 12.76912 13464 ft 369 kts 292°
2026-05-04 18:07 45.15272 12.73617 13220 ft 367 kts 292°
2026-05-04 18:07 45.16335 12.70331 12958 ft 366 kts 292°
2026-05-04 18:07 45.17392 12.67058 12694 ft 364 kts 292°
2026-05-04 18:07 45.18439 12.63802 12438 ft 362 kts 292°
2026-05-04 18:08 45.19480 12.60557 12183 ft 361 kts 292°
2026-05-04 18:08 45.20501 12.57380 11923 ft 355 kts 292°
2026-05-04 18:08 45.21555 12.54283 11662 ft 345 kts 297°
2026-05-04 18:08 45.22755 12.51401 11449 ft 334 kts 298°
2026-05-04 18:09 45.25113 12.45928 11005 ft 316 kts 299°
2026-05-04 18:09 45.27337 12.40803 10569 ft 305 kts 299°
2026-05-04 18:10 45.28442 12.38240 10355 ft 303 kts 299°
2026-05-04 18:10 45.29537 12.35681 10132 ft 301 kts 298°
2026-05-04 18:10 45.30617 12.33153 9921 ft 296 kts 299°
2026-05-04 18:10 45.31675 12.30676 9690 ft 291 kts 299°
2026-05-04 18:11 45.32717 12.28231 9448 ft 289 kts 298°
2026-05-04 18:11 45.33754 12.25799 9210 ft 287 kts 298°
2026-05-04 18:11 45.34772 12.23409 8998 ft 286 kts 298°
2026-05-04 18:11 45.35798 12.20997 8757 ft 285 kts 298°
2026-05-04 18:12 45.36820 12.18592 8517 ft 283 kts 298°
2026-05-04 18:12 45.37835 12.16201 8306 ft 282 kts 299°
2026-05-04 18:12 45.38857 12.13797 8071 ft 281 kts 298°
2026-05-04 18:12 45.39855 12.11441 7848 ft 280 kts 298°
2026-05-04 18:13 45.40870 12.09048 7627 ft 279 kts 299°
2026-05-04 18:13 45.41866 12.06697 7409 ft 278 kts 299°
2026-05-04 18:13 45.43845 12.02008 6972 ft 276 kts 299°
2026-05-04 18:14 45.44831 11.99665 6764 ft 276 kts 299°
2026-05-04 18:14 45.45815 11.97326 6572 ft 275 kts 299°
2026-05-04 18:14 45.46799 11.94989 6372 ft 275 kts 299°
2026-05-04 18:15 45.48745 11.90370 5964 ft 266 kts 299°
2026-05-04 18:15 45.50701 11.86101 5566 ft 255 kts 316°
2026-05-04 18:15 45.52236 11.84815 5037 ft 263 kts 347°
2026-05-04 18:16 45.54017 11.84826 4884 ft 254 kts 16°
2026-05-04 18:16 45.55529 11.86001 4692 ft 245 kts 45°
2026-05-04 18:16 45.56446 11.87971 4463 ft 236 kts 70°
2026-05-04 18:17 45.57581 11.92206 3840 ft 224 kts 70°
2026-05-04 18:17 45.58136 11.94277 3546 ft 223 kts 70°
2026-05-04 18:17 45.59231 11.98355 2973 ft 209 kts 70°
2026-05-04 18:18 45.59726 12.00199 2711 ft 193 kts 71°
2026-05-04 18:18 45.60194 12.01947 2457 ft 185 kts 70°
2026-05-04 18:18 45.60638 12.03606 2235 ft 174 kts 71°
2026-05-04 18:18 45.61054 12.05161 2016 ft 163 kts 70°
2026-05-04 18:19 45.61833 12.08079 1586 ft 155 kts 71°
2026-05-04 18:19 45.62214 12.09506 1383 ft 153 kts 73°
2026-05-04 18:19 45.62594 12.10931 1180 ft 153 kts 73°
2026-05-04 18:20 45.62970 12.12341 946 ft 150 kts 72°
2026-05-04 18:20 45.63341 12.13737 751 ft 147 kts 72°
2026-05-04 18:20 45.63707 12.15108 520 ft 150 kts 74°
2026-05-04 18:20 45.64071 12.16440 355 ft 141 kts 72°
2026-05-04 18:21 45.64408 12.17759 155 ft 142 kts 72°
2026-05-04 18:21 45.64748 12.19010 67 ft 121 kts 69°
2026-05-04 18:21 45.64995 12.19955 60 ft 78 kts 69°
2026-05-04 18:21 45.65120 12.20428 63 ft 38 kts 70°
2026-05-04 18:22 45.65175 12.20635 64 ft 10 kts 69°
2026-05-04 18:22 45.65199 12.20724 59 ft 10 kts 69°
2026-05-04 18:22 45.65230 12.20783 65 ft 8 kts 21°
2026-05-04 18:22 45.65283 12.20778 66 ft 6 kts 333°
2026-05-04 18:23 45.65288 12.20775 71 ft 0 kts 333°
2026-05-04 18:23 45.65309 12.20761 62 ft 5 kts 338°
2026-05-04 18:23 45.65332 12.20747 73 ft 3 kts 337°
2026-05-04 18:23 45.65351 12.20730 70 ft 3 kts 319°
2026-05-04 18:24 45.65370 12.20706 71 ft 4 kts 317°
2026-05-04 18:24 45.65377 12.20666 71 ft 5 kts 269°
2026-05-04 18:24 45.65365 12.20616 74 ft 6 kts 251°
2026-05-04 18:24 45.65348 12.20552 74 ft 8 kts 248°
2026-05-04 18:25 45.65331 12.20490 68 ft 3 kts 249°
2026-05-04 18:25 45.65330 12.20467 69 ft 2 kts 295°
2026-05-04 18:25 45.65343 12.20452 71 ft 3 kts 329°
2026-05-04 18:25 45.65367 12.20439 72 ft 5 kts 339°
2026-05-04 18:26 45.65378 12.20433 67 ft 1 kts 339°